map of YYQ home
YYQ - Airport
Location
City:  Churchill, Manitoba, Canada
Name:Churchill Airport
ICAO:CYYQ
IATA:YYQ

Details
Type:Airport (Airfield)
Use:Public/Civil
Latitude:5844'21"N (58.739167)
Longitude:9403'59"W (-94.066388)
Elevation:96 ft (29 m)
Variation:2.07W (WMM2015 magnetic declination)
0.01 annual change
Runways:2
Longest:9195 ft (2803 m), paved

Time
Time Zone:UTC-6 (DST-5)
Local Time:

Weather
METAR:CYYQ 240800Z 21007KT 15SM SKC 07/06 A3014 RMK SLP210
TAF:CYYQ 240541Z 2406/2506 18006KT P6SM SKC
BECMG 2417/2419 16010KT
RMK NXT FCST BY 241200Z

Related Locations
Nearby:
Farthest:YWKS: 11462 mi / 18447 km
Wilkins Runway (Casey), Upper Peterson Glacier, AQ

Find:

   beyond  
but within

Other Information
Maps:
NOTAMs:
Links:
Sources:

  
flag of Canada
flag of Manitoba
  

Airport Diagram

Airport diagram for YYQ

Airport diagram PDF

Sectional Chart

Flight Planning
at skyvector.com

Satellite Image

Google Maps Satellite view

 

Copyright © 2004-2017 Karl L. Swartz. All rights reserved.
The Great Circle Mapper name and logo are trademarks of the Great Circle Mapper.
All other trademarks mentioned herein belong to their respective owners.
Please see credits for attibutions and further copyright information.

  Follow gcmap on Facebook Follow gcmap on Twitter Follow gcmap on Google+ GCmap on LinkedIn

hCard Microformat

Geo Microformat